Theta_e
359 357 354 348 324 321 316 319 325 325 324 332 335 330 327 331 326 318 344 348 353 354 359 362 367 367 365 366 366 365 366 364 365 365 364 362 361 362 362 361 361 361 360 360 360 359 359 359 358
347 355 351 338 318 309 315 321 319 326 331 333 334 334 331 327 336 337 340 347 351 355 357 360 366 368 365 365 366 366 366 365 364 364 364 361 361 361 360 361 361 361 360 359 358 359 359 359 359
345 356 334 326 320 312 314 320 324 330 334 332 331 335 333 329 337 340 346 350 350 351 356 360 367 367 364 364 364 364 365 365 364 362 361 361 361 360 360 360 361 360 359 359 360 360 360 359 358
347 347 339 323 316 322 321 324 329 331 333 335 334 328 337 340 338 343 349 350 349 350 357 365 368 364 364 364 364 364 363 362 363 361 362 361 361 361 360 360 360 360 360 361 358 359 358 358 358
347 341 322 319 321 325 328 331 332 329 330 332 333 328 332 340 343 345 347 351 350 353 358 360 367 365 361 360 360 360 360 361 362 362 361 362 362 360 362 359 357 359 360 359 358 359 358 357 357
329 335 316 314 319 327 330 333 332 331 331 332 331 330 332 339 339 342 345 352 353 354 358 360 364 365 364 363 361 363 362 362 358 360 360 359 359 361 359 359 360 362 358 357 357 356 355 355 355
325 320 317 318 321 325 328 334 331 330 328 328 333 326 333 338 342 343 350 353 353 355 356 357 358 361 364 363 361 360 362 361 361 362 362 361 360 359 360 360 360 359 357 357 356 356 355 355 355
321 324 320 318 319 323 332 332 335 331 329 335 335 327 327 337 344 346 347 344 346 353 354 354 356 356 355 355 361 361 361 361 361 360 361 362 360 360 361 364 362 359 358 358 357 356 354 356 355
327 319 316 315 317 325 334 330 335 334 327 332 336 335 338 342 344 342 343 345 346 350 351 353 354 354 353 354 357 361 361 361 360 358 361 362 354 354 357 360 361 359 358 358 358 358 356 355 355
324 319 320 326 325 329 332 333 331 331 330 331 333 339 342 342 340 338 340 342 343 346 349 348 351 352 353 358 352 352 355 354 351 344 351 354 353 351 355 360 362 360 360 361 360 359 358 354 349
323 318 328 330 333 333 332 332 334 329 326 330 331 335 337 339 339 337 339 342 343 345 348 350 351 351 351 351 350 351 353 351 351 347 352 353 353 351 352 352 353 351 359 353 355 353 350 347 348
320 327 327 333 335 333 332 332 331 330 330 334 336 337 336 335 339 338 338 338 342 344 347 347 351 352 351 352 351 350 349 351 350 349 352 351 352 347 351 347 346 348 349 348 350 349 346 344 346
319 321 323 332 334 333 335 331 332 331 331 333 336 337 336 332 333 335 337 343 343 346 346 348 352 352 352 350 351 350 350 348 349 347 346 344 348 350 347 346 349 347 351 351 352 348 346 345 347
322 318 319 329 331 332 330 332 331 333 334 330 331 332 335 334 335 335 337 341 343 345 348 349 353 353 352 350 348 350 350 349 348 345 342 350 351 346 346 350 351 352 355 353 352 348 348 347 348
324 317 322 327 328 329 332 328 326 334 335 332 334 332 334 334 338 336 338 340 343 344 348 348 351 354 350 349 349 350 349 349 346 347 347 350 347 354 341 341 343 349 349 353 353 351 353 349 349
314 314 312 324 326 331 326 315 329 333 332 330 333 331 335 335 337 339 339 341 344 344 346 347 352 352 351 349 351 350 349 348 346 349 350 347 350 349 346 344 342 346 344 344 349 345 347 341 344
312 306 311 318 326 328 324 319 329 332 328 328 327 332 334 334 336 339 340 343 344 344 346 347 348 349 349 349 350 349 347 344 345 347 348 348 351 348 339 338 337 339 345 338 344 345 347 341 344
306 308 312 312 320 325 322 321 328 331 331 328 326 328 333 333 335 339 341 343 343 346 347 347 346 349 349 349 348 347 343 341 342 343 352 350 352 349 341 337 339 342 346 338 342 344 350 346 345
311 305 306 317 323 322 320 321 323 326 325 327 326 327 329 332 336 338 340 342 343 346 346 345 346 346 348 344 342 343 335 337 340 345 353 353 351 351 347 340 347 345 346 345 342 347 347 342 346
305 303 308 317 318 322 318 318 326 328 327 324 327 327 329 329 334 337 339 341 343 344 345 344 346 347 346 345 343 344 341 342 345 353 352 352 351 349 352 348 349 349 350 349 349 346 344 342 341
304 302 307 312 319 323 316 312 318 326 327 330 329 329 331 331 331 334 337 340 343 344 344 345 347 346 347 347 347 346 347 347 344 343 346 353 350 352 352 352 351 348 351 345 341 340 346 334 340
298 312 313 313 310 303 313 298 312 318 321 326 325 328 329 333 333 334 337 338 341 343 346 347 347 347 347 348 343 343 339 339 342 344 347 351 349 345 356 353 352 351 352 347 347 352 346 344 336
306 311 308 314 309 307 310 304 310 316 313 318 323 325 327 333 333 334 337 339 343 345 346 347 348 346 346 348 346 345 341 344 346 345 345 346 341 338 349 355 354 352 352 350 349 348 347 347 343
312 307 307 311 308 298 305 305 303 310 312 318 320 323 328 331 334 336 339 340 341 345 346 346 347 347 348 349 347 345 341 344 344 345 346 348 341 335 349 356 354 352 350 350 351 351 349 348 348
306 301 295 298 297 297 303 303 307 316 318 319 319 323 328 331 332 333 336 337 340 341 344 345 348 348 348 349 347 346 346 345 343 344 344 345 346 348 350 351 352 352 353 351 351 351 349 349 348
302 299 299 292 294 296 304 300 307 319 321 323 324 325 327 330 332 333 335 337 339 344 344 346 348 348 347 346 348 348 347 347 345 346 346 344 345 346 348 352 348 352 353 352 351 352 350 350 351
301 298 304 299 299 299 302 308 314 319 319 321 322 327 329 330 333 335 338 339 340 341 345 347 347 347 347 348 349 349 349 350 348 345 349 349 349 356 351 347 342 343 345 353 353 351 350 348 350
304 306 296 296 291 290 300 304 306 311 315 319 322 323 328 329 331 335 339 339 341 342 346 349 349 348 348 348 349 350 349 348 349 349 349 349 346 350 346 345 340 339 347 356 353 351 350 350 350
302 299 300 298 296 290 290 301 315 314 315 318 319 325 326 328 332 335 338 340 342 342 344 349 350 350 349 349 350 347 348 348 349 346 346 350 350 350 348 347 345 349 351 353 353 352 350 349 349
305 300 301 297 295 297 296 302 316 316 319 321 321 325 327 330 330 334 338 339 341 341 342 346 347 350 349 349 350 349 350 349 349 346 345 347 349 350 349 348 348 352 353 352 351 350 351 349 348
Wind_Speed
4 6 4 3 3 4 3 7 8 16 4 20 19 11 8 5 5 4 14 20 19 14 11 12 14 15 14 13 13 13 15 14 12 12 12 12 11 10 9 8 8 8 8 8 8 8 7 7 5
4 10 4 4 2 3 2 6 17 17 3 19 18 17 15 13 12 13 17 21 21 16 12 10 13 14 14 14 13 13 13 14 13 11 11 11 10 10 9 9 8 8 8 7 7 8 9 8 6
5 8 3 1 2 2 4 3 14 21 21 16 11 9 6 10 13 8 19 21 19 15 13 13 15 13 13 13 11 11 12 12 12 11 10 10 10 10 9 9 9 10 9 9 9 8 8 7 6
4 3 4 5 2 4 10 8 21 16 15 15 16 10 9 13 11 12 21 19 16 15 13 14 17 15 13 11 11 11 11 10 10 10 9 9 9 10 9 9 9 9 8 10 9 8 7 7 6
3 3 3 2 2 5 10 19 17 12 13 4 11 8 9 8 16 18 18 19 19 14 11 13 16 14 12 11 11 11 10 10 9 10 9 9 9 9 9 9 8 8 9 9 8 8 8 6 5
4 4 3 6 5 3 4 7 4 10 9 14 18 12 5 20 21 13 15 18 17 16 12 12 16 14 13 12 11 10 10 10 11 9 9 9 8 8 8 8 10 9 8 9 7 7 6 4 3
4 1 3 3 6 3 4 3 7 9 5 6 1 8 6 19 20 16 17 17 16 15 11 10 11 12 14 12 10 10 9 10 9 8 8 8 8 8 9 9 9 9 7 7 6 6 4 3 3
3 5 4 9 13 6 4 5 11 7 1 2 8 4 10 10 17 16 16 13 12 14 12 8 8 8 6 6 9 9 8 9 9 9 8 8 7 8 8 9 8 8 7 7 6 6 3 3 2
4 5 3 8 4 5 4 3 7 4 4 5 6 9 15 17 19 14 12 14 12 13 12 11 10 9 7 6 7 8 9 9 9 7 7 6 4 5 6 8 10 8 8 7 7 7 7 5 5
5 4 8 10 8 2 2 3 3 4 8 12 14 21 20 19 15 15 13 13 8 8 12 10 8 8 8 6 6 5 5 3 4 4 3 4 5 5 6 8 11 10 9 9 8 7 6 5 2
3 4 5 7 4 4 2 6 2 14 2 8 8 2 13 18 15 12 18 14 13 10 6 7 4 8 6 6 4 3 2 3 3 4 4 5 4 1 4 3 4 4 8 4 6 4 3 6 3
2 4 5 5 5 1 3 6 6 5 7 12 14 13 4 16 13 10 12 7 12 9 11 8 10 6 7 5 4 4 3 3 3 4 5 2 2 4 5 2 1 4 4 4 5 2 3 4 5
5 3 3 8 8 4 9 4 4 3 8 13 15 11 11 8 12 10 9 9 9 11 9 8 10 7 6 6 4 3 3 4 5 4 4 4 2 4 1 3 1 2 4 6 4 3 3 1 1
2 4 8 6 9 3 5 7 8 5 5 9 7 12 16 16 14 8 9 12 9 10 10 10 10 7 7 5 5 4 3 4 4 4 4 6 2 2 3 3 3 2 2 3 4 3 4 4 4
3 6 1 3 3 5 10 2 5 7 10 12 12 16 20 15 15 11 10 14 15 8 12 11 10 8 7 7 5 4 4 3 3 6 6 6 4 7 5 4 1 2 3 7 4 4 1 2 2
8 4 3 4 2 5 9 5 5 7 5 14 13 10 16 15 16 14 13 14 11 11 13 9 10 9 8 6 4 4 4 3 3 1 2 6 5 9 4 2 3 3 4 3 2 3 0 2 2
7 5 7 3 8 8 8 5 10 9 10 13 8 13 16 14 10 13 11 13 14 11 12 10 9 11 7 7 4 4 5 1 1 0 3 5 5 8 6 2 1 4 4 2 3 1 3 3 0
4 5 5 6 8 7 8 8 14 15 15 12 7 8 17 16 16 16 15 14 12 12 12 12 8 11 9 5 4 2 1 3 3 2 4 7 4 7 4 2 1 2 1 4 4 3 3 1 2
5 6 9 4 3 5 3 9 8 4 8 9 8 4 14 18 15 16 15 15 14 10 11 11 11 8 7 4 4 2 3 3 3 3 7 7 6 8 7 4 2 3 4 6 6 3 1 3 6
4 9 2 4 9 5 3 3 5 12 2 7 13 11 14 13 17 15 18 16 16 15 13 11 12 11 7 6 4 3 3 3 2 2 4 6 6 3 6 7 5 5 2 5 4 3 2 4 3
7 8 5 5 4 1 5 5 4 3 6 13 16 15 14 17 18 14 17 17 17 16 13 11 13 12 8 7 3 2 1 1 0 2 2 3 2 4 4 2 4 1 1 2 1 3 1 3 2
9 4 6 7 3 4 6 5 3 9 14 18 15 21 14 20 17 14 15 17 17 15 15 13 14 13 10 8 4 5 5 4 4 3 2 2 3 3 3 3 4 3 2 2 1 2 2 4 2
9 6 7 10 10 12 7 2 2 4 6 16 22 17 12 19 21 18 17 20 18 17 15 14 14 13 9 8 7 5 5 4 3 3 4 2 3 4 1 4 3 3 2 2 3 1 2 3 4
8 3 6 10 5 3 7 3 5 6 8 8 9 7 11 15 20 19 16 21 17 16 16 15 15 15 9 8 8 7 8 6 1 2 2 4 3 3 3 5 2 3 3 2 1 3 1 2 4
4 2 4 4 4 8 5 4 9 3 11 14 14 14 14 10 18 17 17 16 20 19 17 15 15 12 11 10 8 7 6 6 6 4 4 4 3 3 6 5 4 2 3 2 2 3 3 3 2
5 6 6 6 6 7 7 7 8 10 10 14 18 18 15 9 14 17 15 16 14 20 19 17 15 12 11 9 8 7 7 4 4 5 3 4 4 5 4 4 1 3 2 4 4 3 3 2 3
10 6 9 4 7 4 5 2 9 15 13 13 1 6 12 11 16 16 18 16 13 14 19 18 16 12 12 11 7 7 7 6 5 7 4 4 5 2 4 7 5 4 5 5 4 4 3 2 2
10 8 7 5 4 3 2 2 18 8 11 4 7 6 12 10 14 15 16 16 13 13 15 16 16 15 14 11 9 6 6 6 5 4 4 5 5 4 6 5 4 5 6 5 3 2 3 2 3
3 5 5 3 5 4 3 6 10 11 8 9 3 8 8 8 15 15 15 15 13 13 13 15 15 14 13 11 10 9 8 7 7 6 6 5 4 4 6 7 7 7 5 5 3 5 5 4 4
8 3 3 4 9 3 3 6 5 7 5 8 11 5 9 10 10 13 13 14 13 14 11 14 13 12 12 11 10 10 9 9 7 6 7 6 6 5 5 5 5 5 6 6 6 6 5 5 5
Wind_Direction
249 232 202 276 54 75 91 20 339 303 44 72 70 73 95 123 155 163 142 123 130 128 133 134 133 128 127 124 127 136 136 133 123 119 118 116 116 115 117 115 121 130 126 131 133 141 157 155 175
265 263 200 276 106 76 68 126 259 271 33 107 85 85 82 80 94 108 116 132 129 138 135 140 134 129 127 127 133 134 135 134 132 125 118 120 125 121 121 116 120 125 128 130 134 141 139 149 158
270 274 43 166 185 70 108 341 284 285 303 104 105 71 88 110 121 100 123 132 136 136 133 143 134 128 130 132 130 131 133 131 125 126 124 128 127 120 120 124 124 123 138 137 139 136 130 143 151
261 7 27 29 75 62 135 165 260 270 249 105 112 74 87 130 119 135 143 141 131 126 133 139 131 134 136 135 135 135 137 136 133 134 134 134 134 129 132 128 142 127 132 135 126 132 139 139 140
271 74 338 289 17 129 155 176 230 254 76 102 96 99 92 92 119 138 124 119 122 123 134 136 134 135 139 137 145 144 143 137 137 140 144 134 137 139 129 122 127 141 140 128 134 135 144 150 153
262 115 23 9 312 94 183 139 251 75 32 69 92 110 112 133 135 138 135 124 127 131 140 141 135 143 152 150 154 146 148 139 142 149 143 144 139 137 137 146 150 144 144 137 146 143 149 165 178
207 48 29 353 317 4 312 20 95 90 128 89 350 117 121 134 146 151 133 126 135 131 142 144 143 151 151 155 155 154 149 144 147 152 148 153 152 159 159 160 152 148 152 147 157 135 147 177 182
154 90 58 32 311 310 331 21 98 105 94 331 153 167 147 137 111 121 129 136 135 138 142 152 153 142 142 154 160 154 163 156 153 165 165 167 172 182 175 169 170 160 168 163 174 147 155 178 220
131 61 146 182 233 283 331 49 26 67 110 32 300 132 136 128 126 127 129 130 147 146 151 157 156 156 156 157 161 162 166 165 168 172 178 181 187 208 206 185 187 177 184 182 187 183 184 204 226
103 142 206 201 182 245 167 78 135 140 49 19 6 119 141 142 150 153 140 143 144 143 162 158 157 161 149 159 151 157 159 162 190 184 212 222 228 199 206 192 178 186 198 203 210 199 194 149 111
161 158 193 182 90 339 160 116 82 109 95 199 145 188 163 156 161 159 144 155 158 147 122 113 102 167 153 140 165 158 157 182 216 196 228 237 256 261 170 166 183 185 217 233 221 193 139 165 184
103 235 189 103 101 308 91 140 108 140 185 161 164 187 231 167 166 149 159 136 143 145 140 172 166 152 137 146 159 160 167 190 216 214 238 287 292 144 147 168 204 189 214 228 229 166 157 165 171
153 218 326 153 137 171 155 99 139 123 188 183 169 200 248 142 144 143 146 134 132 131 146 152 137 142 140 148 161 163 196 183 219 223 211 225 287 94 104 233 222 231 204 215 187 170 150 213 162
38 338 296 137 152 153 160 135 164 183 194 240 231 236 217 159 160 145 135 138 152 150 149 162 136 144 137 155 172 187 202 208 227 215 210 220 133 98 104 93 356 360 287 245 138 175 177 211 168
260 293 357 83 281 148 119 95 189 162 185 225 266 248 161 151 143 154 151 157 166 151 152 159 139 147 146 178 172 200 210 220 224 213 213 203 142 74 97 55 23 293 4 358 129 179 140 35 324
284 260 14 255 266 186 118 235 153 173 210 231 257 196 154 154 164 159 170 170 155 151 160 160 149 143 161 167 172 197 228 219 191 91 279 178 129 116 125 174 253 25 40 61 354 6 11 339 309
301 173 223 175 227 183 160 183 197 196 211 255 241 148 158 165 169 165 157 163 163 164 158 152 146 153 170 162 184 207 241 183 194 311 282 224 152 137 143 202 289 341 359 31 279 293 194 246 291
212 269 228 192 211 197 203 198 190 198 202 226 245 174 168 177 170 168 163 163 169 157 158 155 160 160 160 166 162 216 273 271 242 206 222 199 169 155 120 179 306 8 332 264 290 236 213 192 180
231 293 269 26 359 185 327 38 229 1 317 249 230 211 166 167 183 173 173 160 163 144 151 157 151 159 148 154 152 193 224 244 259 202 172 190 178 162 157 189 192 174 214 215 237 258 49 42 13
329 283 183 285 249 170 123 44 163 125 40 315 324 265 190 175 163 172 174 166 165 161 162 158 162 160 166 155 173 175 172 239 255 147 180 210 186 207 162 180 201 208 186 199 215 16 29 69 40
261 245 206 215 199 194 265 116 128 138 132 267 291 301 243 181 168 164 170 157 164 161 167 162 161 165 163 172 157 174 96 316 58 175 176 158 174 126 262 202 160 286 38 88 317 328 320 106 218
281 332 341 278 55 313 334 284 164 167 195 215 209 243 257 170 171 168 162 166 163 167 170 164 163 166 175 174 180 164 168 184 218 193 155 202 170 174 284 224 177 185 223 206 230 319 209 108 29
252 3 354 75 55 16 323 65 246 174 198 209 221 223 220 183 173 174 170 169 170 165 172 168 171 168 181 174 179 183 176 195 220 209 167 177 276 232 206 277 174 208 226 180 172 310 332 102 138
256 28 34 56 57 346 217 144 273 181 210 245 249 211 209 195 174 176 174 168 168 167 172 171 171 176 176 177 186 181 185 197 212 228 169 152 211 258 272 266 244 234 208 147 142 298 323 200 158
215 250 10 23 329 215 128 330 218 184 232 220 229 226 228 203 171 167 157 152 169 172 175 173 172 177 183 172 172 189 192 200 207 219 179 178 207 234 236 219 216 234 215 225 198 214 224 225 240
242 188 162 200 228 254 132 213 255 221 242 218 232 232 207 199 168 168 161 156 157 158 173 172 173 174 179 181 173 180 195 197 205 214 204 205 192 238 233 145 96 280 273 238 243 215 216 221 231
269 296 236 216 261 121 179 65 320 95 115 257 219 103 141 139 155 154 146 152 153 147 166 167 172 175 176 180 173 183 187 190 197 218 219 226 213 188 155 178 195 233 262 258 233 220 218 176 252
184 235 1 339 314 328 257 165 202 196 206 347 118 102 121 142 145 144 146 158 160 155 148 162 166 171 178 177 183 180 181 196 212 224 256 231 242 154 175 189 202 245 248 243 197 220 250 253 251
274 266 271 189 174 208 225 246 189 189 223 144 292 147 140 135 137 149 154 159 155 151 143 160 166 169 176 180 179 182 191 195 206 212 221 252 221 181 167 193 212 222 233 247 223 230 250 256 259
204 234 296 59 310 300 234 267 153 112 14 29 327 166 148 136 144 153 153 156 154 159 156 160 164 165 177 183 181 189 195 195 199 208 213 219 242 227 203 222 219 235 229 226 229 230 233 240 248